Location: TAAA CAC
(31.8680°N, 109.5150°W)
Time: 21:30:14
(UTC-07:00)

BlueWalker 3 - Pass Details

Date: 20 March 2026
Orbit: 449 x 457 km, 53.2° (Epoch: 20 April)

Event Time Altitude Azimuth Distance (km) Brightness Sun altitude
Rises 19:49:57 0° 218° (SW) 2,443 5.8 -17.7°
Reaches altitude 10° 19:52:04 10° 217° (SW) 1,576 4.8 -18.2°
Maximum altitude 19:55:37 76° 132° (SE) 470 1.5 -18.9°
Enters shadow 19:56:12 58° 66° (ENE) 532 1.7 -19.0°
